ABX2699 KCVG-KOMA

Flight info

Callsign ABX2699
Flight time N/A
Altitude 32000
Route LOVEY8 MACES PIA DSM LANTK2
Aircraft B77L/H-SDE1E2E3FGHIJ2J3J4J5M1RWXY/LB1D1

Departure

Time 2026-05-07 13:44
Airport Cincinnati Northern Kentucky International Airport (KCVG)

Arrival

Time N/A
Airport Eppley Airfield (KOMA)
Time Latitude Longitude Altitude Speed Heading
2026-05-07 13:26 39.03240 -84.65245 883 ft 0 kts 299°
2026-05-07 13:36 39.03235 -84.65231 883 ft 2 kts 298°
2026-05-07 13:36 39.03227 -84.65213 883 ft 2 kts 298°
2026-05-07 13:36 39.03219 -84.65194 883 ft 2 kts 299°
2026-05-07 13:36 39.03211 -84.65176 883 ft 2 kts 303°
2026-05-07 13:37 39.03200 -84.65160 883 ft 2 kts 343°
2026-05-07 13:37 39.03195 -84.65158 883 ft 0 kts
2026-05-07 13:38 39.03222 -84.65157 883 ft 11 kts
2026-05-07 13:38 39.03306 -84.65157 883 ft 12 kts 360°
2026-05-07 13:39 39.03390 -84.65158 883 ft 12 kts 360°
2026-05-07 13:39 39.03473 -84.65158 883 ft 11 kts 360°
2026-05-07 13:39 39.03536 -84.65157 883 ft 8 kts
2026-05-07 13:39 39.03573 -84.65106 883 ft 12 kts 84°
2026-05-07 13:40 39.03592 -84.65001 883 ft 13 kts 29°
2026-05-07 13:40 39.03684 -84.64993 883 ft 13 kts 359°
2026-05-07 13:40 39.03775 -84.64993 883 ft 13 kts
2026-05-07 13:40 39.03870 -84.64993 883 ft 16 kts
2026-05-07 13:41 39.04006 -84.64991 883 ft 21 kts
2026-05-07 13:41 39.04152 -84.64991 883 ft 21 kts
2026-05-07 13:41 39.04297 -84.64990 883 ft 21 kts
2026-05-07 13:41 39.04419 -84.64990 883 ft 11 kts 360°
2026-05-07 13:42 39.04460 -84.65043 883 ft 11 kts 275°
2026-05-07 13:42 39.04461 -84.65172 884 ft 16 kts 271°
2026-05-07 13:42 39.04475 -84.65280 884 ft 11 kts 313°
2026-05-07 13:42 39.04565 -84.65298 887 ft 14 kts 360°
2026-05-07 13:43 39.04627 -84.65350 888 ft 11 kts 274°
2026-05-07 13:43 39.04626 -84.65379 888 ft 0 kts 268°
2026-05-07 13:43 39.04626 -84.65495 887 ft 44 kts 270°
2026-05-07 13:43 39.04628 -84.66214 886 ft 116 kts 270°
2026-05-07 13:44 39.04631 -84.67523 888 ft 173 kts 270°
2026-05-07 13:44 39.04627 -84.69148 1367 ft 179 kts 272°
2026-05-07 13:44 39.04621 -84.70770 2083 ft 182 kts 273°
2026-05-07 13:44 39.04625 -84.72394 2746 ft 183 kts 274°
2026-05-07 13:45 39.04617 -84.74104 3028 ft 201 kts 274°
2026-05-07 13:45 39.04622 -84.76014 3246 ft 227 kts 273°
2026-05-07 13:45 39.04620 -84.78137 3715 ft 243 kts 272°
2026-05-07 13:45 39.04612 -84.80325 4425 ft 249 kts 272°
2026-05-07 13:46 39.04603 -84.82571 5236 ft 252 kts 271°
2026-05-07 13:46 39.04601 -84.84835 6066 ft 254 kts 271°
2026-05-07 13:46 39.04600 -84.86340 6618 ft 255 kts 271°
2026-05-07 13:46 39.04615 -84.88630 7399 ft 257 kts 271°
2026-05-07 13:47 39.04640 -84.91724 8471 ft 259 kts 271°
2026-05-07 13:47 39.04652 -84.93268 8998 ft 261 kts 271°
2026-05-07 13:47 39.04821 -84.95580 9653 ft 263 kts 287°
2026-05-07 13:47 39.05514 -84.97772 10207 ft 268 kts 292°
2026-05-07 13:48 39.06254 -85.00077 10473 ft 290 kts 290°
2026-05-07 13:48 39.07029 -85.02594 10673 ft 315 kts 290°
2026-05-07 13:48 39.07925 -85.05281 10904 ft 337 kts 294°
2026-05-07 13:48 39.08953 -85.08008 11572 ft 346 kts 294°
2026-05-07 13:49 39.10032 -85.10804 12485 ft 350 kts 294°
2026-05-07 13:49 39.11116 -85.13619 13516 ft 352 kts 294°
2026-05-07 13:49 39.12200 -85.16456 14438 ft 353 kts 293°
2026-05-07 13:49 39.13279 -85.19303 15450 ft 352 kts 292°
2026-05-07 13:50 39.14344 -85.22124 16501 ft 349 kts 291°
2026-05-07 13:50 39.15405 -85.24947 17505 ft 349 kts 290°
2026-05-07 13:50 39.16460 -85.27763 18437 ft 349 kts 290°
2026-05-07 13:50 39.17518 -85.30590 19178 ft 352 kts 290°
2026-05-07 13:51 39.18587 -85.33451 19834 ft 356 kts 290°
2026-05-07 13:51 39.19666 -85.36340 20494 ft 360 kts 289°
2026-05-07 13:51 39.20755 -85.39257 21198 ft 363 kts 289°
2026-05-07 13:51 39.22011 -85.42121 21881 ft 373 kts 297°
2026-05-07 13:52 39.23654 -85.44768 22524 ft 381 kts 301°
2026-05-07 13:52 39.25378 -85.47398 23130 ft 386 kts 302°
2026-05-07 13:52 39.27097 -85.50026 23782 ft 390 kts 301°
2026-05-07 13:52 39.28846 -85.52722 24324 ft 393 kts 301°
2026-05-07 13:53 39.30596 -85.55446 24873 ft 395 kts 301°